Location: Azul
(36.7830°S, 59.8500°W)
Time: 18:48:56
(UTC-03:00)

AIST 2D - Pass Details

Date: 29 October 2021
Orbit: 445 x 462 km, 97.1° (Epoch: 06 December)

Event Time Altitude Azimuth Distance (km) Brightness Sun altitude
Exits shadow 21:35:25 16° 149° (SSE) 1,294 ? -22.9°
Drops below altitude 10° 21:36:24 10° 162° (SSE) 1,603 ? -23.0°
Sets 21:38:43 0° 176° (S) 2,485 ? -23.4°
